LEMH

Isla de Menorca/Menorca

Airport
ICAO code
LEMH
IATA Code
MAH
Summary
ICAO Region
EUR
ICAO Territory
Location

Mahon, Balearics,

Serving
Menorca
Elevation
302 ft
Coordinates
39° 51' 49" N , 4° 12' 58" E
KCC
Metar
LEMH 201800Z 18011KT CAVOK 27/23 Q1008

Description

International airport serving the island of Menorca.

Climatology

Dry-summer subtropical ”Mediterranean" climate (Köppen climate classification Csa) - characterized by hot, dry summers and mild winters. During the summer, subtropical high pressure cells dominate, making rainfall unlikely except for the occasional thunderstorm. In the winter, periodic storms bring rain.

Runways

Designator Length Width Surface Rops
01R/19L 2100 45 ASP Yes/Yes
01L/19R 2350 45 ASP Yes/Yes

Airport map

Aerial View

Airport accidents

SKYbrary Partners:

Safety knowledge contributed by: